Home > Weather > Limassol > Past weeks

Flag for Cyprus Past Weather in Limassol, Cyprus — Yesterday and Last 2 Weeks

Now
93 °F

Passing clouds.


Feels Like: 95 °F
Forecast: 63 / 96 °F
Wind: 9 mph from Southwest

Location: Akrotiri

Current Time: Jul 26, 2016 at 1:15:59 PM

Latest Report: Jul 26, 2016 at 12:50 PM


Visibility: N/A

Pressure: 29.68 "Hg

Humidity: 39%

Dew Point: 64 °F

Location of LimassolLocation

Past Weather in Limassol — Graph

°F

Limassol Temperature Yesterday

Maximum temperature yesterday: 91 °F (at 9:50 AM)
Minimum temperature yesterday: 73 °F (at 5:50 AM)
Average temperature yesterday: 84 °F

High & Low Weather Summary for the Past Weeks

 TemperatureHumidityPressure
High93 °F (Jul 12, 11:50 AM)100% (Jul 25, 6:50 AM)29.86 "Hg (Jul 25, 6:50 AM)
Low72 °F (Jul 19, 4:50 AM)24% (Jul 12, 11:50 AM)29.59 "Hg (Jul 19, 3:50 AM)
Average82 °F70%29.70 "Hg
* Reported Jul 11 11:50 AM — Jul 26 11:50 AM, Limassol, Weather by CustomWeather, © 2016

Note: Actual official high and low records may vary slightly from our data, if they occured in-between our weather recording intervals... More about our weather records

Advertising

Limassol Weather History for the Previous 24 Hours

Scroll right to see more
 ConditionsComfort  
Time TempWeatherWind HumidityBarometerVisibility
11:50 AM
Tue, Jul 26
88 °FPassing clouds.6 mph59%29.68 "HgN/A
10:50 AM86 °FPassing clouds.7 mph62%29.68 "HgN/A
9:50 AM86 °FPassing clouds.5 mph49%29.68 "HgN/A
8:50 AM82 °FPassing clouds.10 mph70%29.68 "HgN/A
7:50 AM81 °FPassing clouds.3 mph51%29.65 "HgN/A
6:50 AM77 °FPassing clouds.2 mph61%29.65 "HgN/A
5:50 AM75 °FClear.5 mph57%29.65 "Hg10 mi
4:50 AM77 °FClear.5 mph65%29.65 "Hg10 mi
3:50 AM77 °FClear.6 mph69%29.65 "Hg10 mi
2:50 AM75 °FClear.6 mph83%29.62 "Hg10 mi
1:50 AM79 °FClear.8 mph94%29.62 "Hg10 mi
12:50 AM79 °FClear.8 mph94%29.65 "Hg10 mi
11:50 PM
Mon, Jul 25
81 °FClear.8 mph89%29.65 "Hg10 mi
10:50 PM81 °FClear.8 mph89%29.65 "Hg10 mi
9:50 PM81 °FClear.8 mph89%29.65 "Hg10 mi
8:50 PM82 °FSunny.8 mph84%29.65 "Hg10 mi
7:50 PM84 °FSunny.9 mph79%29.65 "Hg10 mi
6:50 PM88 °FSunny.10 mph66%29.65 "Hg10 mi
5:50 PM91 °FSunny.12 mph41%29.62 "Hg10 mi
4:50 PM90 °FSunny.12 mph55%29.62 "Hg10 mi
3:50 PM91 °FPassing clouds.10 mph46%29.62 "HgN/A
2:50 PM91 °FPassing clouds.7 mph49%29.65 "HgN/A
1:50 PM90 °FPassing clouds.7 mph55%29.65 "HgN/A
Weather by CustomWeather, © 2016

See weather overviewHow to use our weather pages